Location: Unnamed
(52.1820°N, 21.0059°E)
Time: 09:58:51
(UTC+02:00)

ISS - Visible Passes

Search period start: 12 May 2025 00:00
Search period end: 22 May 2025 00:00
Orbit: 416 x 420 km, 51.6° (Epoch: 12 May)

Date Brightness Start Highest point End Pass type
(mag) Time Alt. Az. Time Alt. Az. Time Alt. Az.
12 May -3.4 21:27:13 10° SW 21:30:25 44° SSE 21:33:38 10° E visible
12 May -3.9 23:03:42 10° W 23:07:04 83° S 23:09:07 22° E visible
13 May -2.2 00:40:28 10° W 00:42:02 25° W 00:42:02 25° W visible
13 May -3.9 22:15:47 10° WSW 22:19:10 78° S 22:22:31 10° E visible
13 May -3.9 23:52:33 10° W 23:55:47 68° SSW 23:55:47 68° SSW visible
14 May -3.8 21:27:54 10° WSW 21:31:14 68° SSE 21:34:35 10° E visible
14 May -3.9 23:04:37 10° W 23:07:59 79° S 23:09:26 31° ESE visible
15 May -1.6 00:41:27 10° W 00:42:21 16° W 00:42:21 16° W visible
15 May -3.9 22:16:39 10° W 22:20:01 83° S 22:23:04 12° E visible
15 May -3.0 23:53:26 10° W 23:55:58 38° WSW 23:55:58 38° WSW visible
16 May -3.8 21:28:41 10° W 21:32:03 83° S 21:35:25 10° E visible
16 May -3.7 23:05:26 10° W 23:08:45 58° SSW 23:09:35 42° SE visible
17 May -3.8 22:17:27 10° W 22:20:48 70° SSW 22:23:09 18° ESE visible
17 May -2.0 23:54:25 10° W 23:56:03 21° WSW 23:56:03 21° WSW visible
18 May -3.8 21:29:26 10° W 21:32:48 79° S 21:36:09 10° E visible
18 May -3.1 23:06:16 10° W 23:09:22 35° SSW 23:09:38 34° SSW visible
19 May -3.4 22:18:11 10° W 22:21:26 46° SSW 22:23:13 22° SE visible
19 May -1.2 23:55:53 10° WSW 23:56:07 11° WSW 23:56:07 11° WSW visible
20 May -3.6 21:30:07 10° W 21:33:26 59° SSW 21:36:45 10° ESE visible
20 May -2.0 23:07:18 10° W 23:09:42 19° SW 23:09:42 19° SW visible
21 May -2.5 22:18:59 10° W 22:21:52 26° SSW 22:23:17 19° S visible
